FW3220 Weather Reports


Display with metric or nautical units.
time (UTC)temp
F
wind
direction
speed
MPH
gust
MPH
rain 1hr
in
rain 24hr
in
rain mn
in
humidity
%
barometer
mb
20191016042020 59 264 3.0 8.0 0.00 0.00 0.00 70 1003.8
20191016041019 59 278 2.0 3.0 0.00 0.00 0.00 70 1003.8
20191016040028 59 195 2.0 6.0 0.00 0.00 0.00 70 1003.7
20191016035023 59 247 2.0 4.0 0.00 0.00 0.00 70 1003.5
20191016034022 59 254 1.0 4.0 0.00 0.00 0.00 70 1003.5
20191016033026 60 279 2.0 4.0 0.00 0.00 0.00 69 1003.5
20191016032022 60 155 2.0 5.0 0.00 0.00 0.00 69 1003.7
20191016031020 60 180 3.0 5.0 0.00 0.00 0.00 69 1003.8
20191016030027 60 241 3.0 9.0 0.00 0.00 0.00 69 1003.5
20191016025023 60 179 4.0 5.0 0.00 0.00 0.00 69 1003.2
20191016024020 60 168 4.0 11.0 0.00 0.00 0.00 69 1003.4
20191016023019 60 197 3.0 10.0 0.00 0.00 0.00 68 1003.4
20191016022026 60 192 3.0 7.0 0.00 0.00 0.00 68 1003.2
20191016021021 61 209 3.0 6.0 0.00 0.00 0.00 67 1003.1
20191016020018 61 196 4.0 7.0 0.00 0.00 0.00 67 1003.3
20191016015026 61 190 5.0 8.0 0.00 0.00 0.00 67 1003.4
20191016014021 61 181 5.0 9.0 0.00 0.00 0.00 67 1003.4
20191016013020 61 216 4.0 10.0 0.00 0.00 0.00 67 1003.4
20191016012027 61 169 4.0 7.0 0.00 0.00 0.00 67 1003.3
20191016011026 61 148 5.0 6.0 0.00 0.00 0.00 67 1003.3
20191016010024 61 186 4.0 10.0 0.00 0.00 0.00 67 1003.4
20191016005022 61 232 5.0 6.0 0.00 0.00 0.00 67 1003.4
20191016004029 62 221 5.0 7.0 0.00 0.00 0.00 66 1003.5
20191016003024 62 237 4.0 8.0 0.00 0.00 0.00 67 1003.5
20191016002020 62 206 4.0 5.0 0.00 0.00 0.00 66 1003.6
20191016001027 62 214 4.0 10.0 0.00 0.00 0.00 66 1003.7
20191016000023 62 218 5.0 11.0 0.00 0.00 0.00 67 1003.7
20191015235019 62 208 5.0 10.0 0.00 0.00 0.00 67 1003.8
20191015234018 62 176 4.0 10.0 0.00 0.00 0.00 67 1003.8
20191015233026 62 178 4.0 10.0 0.00 0.00 0.00 67 1003.8
20191015232021 62 178 4.0 6.0 0.00 0.00 0.00 67 1003.7
20191015231019 62 177 3.0 10.0 0.00 0.00 0.00 67 1003.6
20191015230024 62 176 3.0 7.0 0.00 0.00 0.00 67 1003.6
20191015225021 62 211 3.0 5.0 0.00 0.00 0.00 67 1003.6
20191015224027 62 248 4.0 7.0 0.00 0.00 0.00 67 1003.7
20191015223026 61 195 3.0 6.0 0.00 0.00 0.00 67 1003.8
20191015222030 62 208 4.0 8.0 0.00 0.00 0.00 67 1003.9
20191015221026 62 225 4.0 5.0 0.00 0.00 0.00 67 1004.0
20191015220019 61 188 4.0 6.0 0.00 0.00 0.00 67 1004.1
20191015215024 61 200 2.0 9.0 0.00 0.00 0.00 67 1004.1
20191015214020 62 232 4.0 7.0 0.00 0.00 0.00 67 1004.1
20191015213018 61 174 3.0 9.0 0.00 0.00 0.00 67 1004.1
20191015212026 62 233 4.0 6.0 0.00 0.00 0.00 67 1004.2
20191015211020 62 192 4.0 9.0 0.00 0.00 0.00 67 1004.2
20191015210019 62 217 2.0 8.0 0.00 0.00 0.00 66 1004.2
20191015205026 61 216 3.0 6.0 0.00 0.00 0.00 66 1004.0
20191015204021 61 218 3.0 6.0 0.00 0.00 0.00 66 1004.0
20191015203020 61 213 2.0 11.0 0.00 0.00 0.00 66 1004.0
20191015202027 61 72 1.0 4.0 0.00 0.00 0.00 65 1004.0
20191015201026 62 186 2.0 4.0 0.00 0.00 0.00 64 1004.0
20191015200020 62 221 2.0 3.0 0.00 0.00 0.00 64 1004.1
20191015195026 62 180 3.0 9.0 0.00 0.00 0.00 63 1004.2
20191015194023 62 167 2.0 12.0 0.00 0.00 0.00 63 1004.2
20191015193020 62 192 2.0 2.0 0.00 0.00 0.00 62 1004.2
20191015192026 63 256 2.0 7.0 0.00 0.00 0.00 61 1004.0
20191015191022 63 230 2.0 4.0 0.00 0.00 0.00 61 1003.8
20191015190019 63 284 2.0 4.0 0.00 0.00 0.00 60 1003.6
20191015185026 63 259 3.0 7.0 0.00 0.00 0.00 60 1003.6
20191015184019 63 356 2.0 6.0 0.00 0.00 0.00 59 1003.5
20191015183018 64 240 4.0 9.0 0.00 0.00 0.00 58 1003.5
20191015182026 64 213 5.0 8.0 0.00 0.00 0.00 58 1003.5
20191015181028 64 211 6.0 24.0 0.00 0.00 0.00 58 1003.4
20191015180023 64 189 5.0 24.0 0.00 0.00 0.00 57 1003.5
20191015175019 64 239 5.0 9.0 0.00 0.00 0.00 57 1003.6
20191015174027 64 202 5.0 10.0 0.00 0.00 0.00 57 1003.7
20191015173021 64 192 4.0 12.0 0.00 0.00 0.00 56 1003.7
20191015172028 64 239 4.0 7.0 0.00 0.00 0.00 56 1003.7
20191015171026 64 215 6.0 19.0 0.00 0.00 0.00 56 1003.7
20191015170028 64 223 4.0 8.0 0.00 0.00 0.00 56 1003.7
20191015165019 64 198 4.0 11.0 0.00 0.00 0.00 57 1003.6
20191015164018 64 167 2.0 6.0 0.00 0.00 0.00 59 1003.6
20191015163022 64 236 2.0 6.0 0.00 0.00 0.00 60 1003.6
20191015162017 64 238 1.0 7.0 0.00 0.00 0.00 62 1003.4
20191015161026 64 3 1.0 3.0 0.00 0.00 0.00 61 1003.4
20191015160025 65 349 1.0 3.0 0.00 0.00 0.00 59 1003.3
20191015155021 66 267 2.0 5.0 0.00 0.00 0.00 58 1003.4
20191015154029 66 193 2.0 6.0 0.00 0.00 0.00 58 1003.5
20191015153023 66 233 1.0 5.0 0.00 0.00 0.00 59 1003.5
20191015152020 66 216 0.0 2.0 0.00 0.00 0.00 58 1003.8
20191015151026 67 114 1.0 2.0 0.00 0.00 0.00 56 1004.0
20191015150020 68 195 2.0 3.0 0.00 0.00 0.00 55 1003.8
20191015145026 68 242 2.0 4.0 0.00 0.00 0.00 54 1003.8
20191015144021 68 223 2.0 4.0 0.00 0.00 0.00 54 1004.0
20191015143020 68 214 3.0 7.0 0.00 0.00 0.00 54 1004.1
20191015142026 69 200 2.0 8.0 0.00 0.00 0.00 54 1004.2
20191015141022 69 171 3.0 6.0 0.00 0.00 0.00 52 1004.3
20191015140017 69 234 3.0 5.0 0.00 0.00 0.00 52 1004.4
20191015135025 69 189 4.0 11.0 0.00 0.00 0.00 52 1004.5
20191015134021 69 174 4.0 9.0 0.00 0.00 0.00 52 1004.5
20191015133026 70 185 4.0 6.0 0.00 0.00 0.00 52 1004.5
20191015132021 70 218 3.0 10.0 0.00 0.00 0.00 53 1004.6
20191015131020 70 201 4.0 7.0 0.00 0.00 0.00 52 1004.7
20191015130018 70 222 4.0 11.0 0.00 0.00 0.00 51 1004.8
20191015125017 71 183 4.0 7.0 0.00 0.00 0.00 51 1004.9
20191015124026 71 228 4.0 10.0 0.00 0.00 0.00 51 1004.8
20191015123021 71 242 4.0 5.0 0.00 0.00 0.00 51 1004.7
20191015122026 70 225 4.0 8.0 0.00 0.00 0.00 51 1005.0
20191015121023 70 211 5.0 12.0 0.00 0.00 0.00 52 1005.2
20191015120021 70 216 6.0 14.0 0.00 0.00 0.00 53 1005.2
20191015115026 70 205 5.0 11.0 0.00 0.00 0.00 53 1005.2
20191015114023 70 225 5.0 9.0 0.00 0.00 0.00 53 1005.2
20191015113020 69 199 5.0 12.0 0.00 0.00 0.00 54 1005.2
20191015112018 69 220 4.0 12.0 0.00 0.00 0.00 56 1005.2
20191015111026 69 153 3.0 6.0 0.00 0.00 0.00 59 1005.3
20191015110019 69 194 2.0 5.0 0.00 0.00 0.00 60 1005.5
20191015105026 69 224 2.0 4.0 0.00 0.00 0.00 60 1005.7
20191015104022 69 175 3.0 12.0 0.00 0.00 0.00 60 1005.7
20191015103020 68 180 4.0 6.0 0.00 0.00 0.00 60 1005.6
20191015102026 68 214 3.0 16.0 0.00 0.00 0.00 61 1005.7
20191015101020 68 139 3.0 7.0 0.00 0.00 0.00 62 1005.8
20191015100022 68 179 4.0 9.0 0.00 0.00 0.00 62 1005.8
20191015095028 68 174 4.0 11.0 0.00 0.00 0.00 62 1005.8
20191015094023 68 249 5.0 10.0 0.00 0.00 0.00 62 1005.5
20191015093019 68 201 5.0 8.0 0.00 0.00 0.00 62 1005.3
20191015092025 68 153 7.0 12.0 0.00 0.00 0.00 62 1005.5
20191015091023 68 174 6.0 12.0 0.00 0.00 0.00 63 1005.6
20191015090026 67 170 6.0 14.0 0.00 0.00 0.00 64 1005.6
20191015085020 67 165 6.0 9.0 0.00 0.00 0.00 64 1005.6
20191015084019 67 193 6.0 8.0 0.00 0.00 0.00 64 1005.7
20191015083027 66 157 6.0 10.0 0.00 0.00 0.00 66 1005.8
20191015082019 66 178 6.0 11.0 0.00 0.00 0.00 67 1005.7
20191015081019 65 184 5.0 9.0 0.00 0.00 0.00 68 1005.6
20191015080027 65 165 4.0 12.0 0.00 0.00 0.00 69 1005.7
20191015075023 64 179 3.0 9.0 0.00 0.00 0.00 71 1005.6
20191015074021 63 168 3.0 6.0 0.00 0.00 0.00 73 1005.7
20191015073027 61 244 1.0 4.0 0.00 0.00 0.00 76 1005.8
20191015072027 60 352 1.0 4.0 0.00 0.00 0.00 76 1005.6
20191015071023 59 262 3.0 4.0 0.00 0.00 0.00 77 1005.5
20191015070020 59 213 2.0 6.0 0.00 0.00 0.00 78 1005.5
20191015065019 58 234 1.0 5.0 0.00 0.00 0.00 80 1005.5
20191015064017 57 359 0.0 4.0 0.00 0.00 0.00 81 1005.6
20191015063025 56 342 1.0 1.0 0.00 0.00 0.00 82 1005.6
20191015062020 55 169 1.0 3.0 0.00 0.00 0.00 82 1005.4
20191015061019 55 6 1.0 3.0 0.00 0.00 0.00 82 1005.3
20191015060023 55 348 1.0 3.0 0.00 0.00 0.00 82 1005.4
20191015055022 55 349 1.0 3.0 0.00 0.00 0.00 81 1005.4
20191015054020 57 48 1.0 2.0 0.00 0.00 0.00 79 1005.4
20191015053025 57 0 1.0 4.0 0.00 0.00 0.00 79 1005.4
20191015052019 58 124 2.0 4.0 0.00 0.00 0.00 78 1005.3
20191015051026 58 126 1.0 3.0 0.00 0.00 0.00 79 1005.4
20191015050025 57 187 2.0 3.0 0.00 0.00 0.00 79 1005.7
20191015045021 57 186 1.0 8.0 0.00 0.00 0.00 80 1005.8
20191015044020 57 244 2.0 4.0 0.00 0.00 0.00 81 1005.8
20191015043027 56 231 1.0 4.0 0.00 0.00 0.00 82 1005.7